Regional Weather Roundup
Issued by NWS Bismarck, ND

Home | Current Version | Previous Version | Text Only | Print | Product List | Glossary On
Versions: 1 2 3 4 5 6 7 8 9 10 11 12 13 14 15 16 17 18 19 20 21 22 23 24 25 26 27 28 29 30 31 32 33 34 35 36 37 38 39 40 41 42 43 44 45 46 47 48 49 50
000
ASUS43 KBIS 271110
RWRBIS

NWR BROADCAST TEXT
NATIONAL WEATHER SERVICE BISMARCK ND
600 AM CDT TUE JUN 27 2017

NOTE: "FAIR" INDICATES FEW OR NO CLOUDS BELOW 12,000 FEET WITH NO
SIGNIFICANT WEATHER AND/OR OBSTRUCTIONS TO VISIBILITY.


CITY           SKY/WX    TMP DP  RH WIND       PRES   REMARKS
WILLISTON      CLOUDY    67  42  40 S10       29.70F
MINOT          CLOUDY    63  37  38 S21G31    29.78F
MINOT AFB      CLOUDY    61  38  41 S15G24    29.77F
BISMARCK       CLOUDY    57  40  52 SE13      29.86F
DICKINSON      PTCLDY    57  35  43 S20       29.76S
GARRISON         N/A     60  39  45 S17G25    29.81F
HETTINGER ARPT PTCLDY    57  39  51 SE15      29.80F
JAMESTOWN      CLOUDY    53  39  59 S10       29.95F
HAZEN          FAIR      61  36  39 S26G35    29.79F
LINTON         FAIR     N/A N/A N/A SE16G22   29.92F
MANDAN         FAIR      57  39  51 SE15G22   29.86F
STANLEY        FAIR      59  41  51 S14       29.80S
TIOGA          FAIR      61  39  44 S20G26    29.73F
WATFORD CITY   FAIR      63  39  42 S14       29.71F
$$

CITY           SKY/WX    TMP DP  RH WIND       PRES   REMARKS
GRAND FORKS    CLOUDY    51  45  79 S7        29.94S
GRAND FORKS AF CLOUDY    53  43  69 S7        29.93F
DEVILS LAKE    CLOUDY    58  42  55 S18G24    29.90F
FARGO          CLEAR     52  42  69 S9        29.99S
CAVALIER       FAIR      54  43  66 S9        29.89F
GRAFTON        FAIR      48  45  87 S8        29.93F
GWINNER        CLOUDY    50  45  81 S8        30.00S
LANGDON        FAIR      54  45  71 S13       29.89F
ROLLA            N/A     52  41  66 S8        29.86F
$$

CITY           SKY/WX    TMP DP  RH WIND       PRES   REMARKS
ABERDEEN       CLEAR     44  41  89 SE8       30.00F
MOBRIDGE       CLOUDY    60  42  51 SE21G26   29.88F
BUFFALO          N/A     57  40  52 SE13      29.69F
RAPID CITY     PTCLDY    61  45  55 S16       29.84F
GLASGOW        CLOUDY    63  39  41 SE8       29.61S
SIDNEY         CLOUDY    64  42  44 SE10      29.67F
WOLF POINT     CLOUDY    66  40  38 NE6       29.62F
GLENDIVE       PTCLDY    62  40  44 SE7       29.67F
MILES CITY     PTCLDY    67  40  37 S14       29.63F
BAKER          PTCLDY    57  38  48 SE14      29.74F
$$

CITY           SKY/WX    TMP DP  RH WIND       PRES   REMARKS
BILLINGS       CLOUDY    72  44  36 NW8       29.75F
GREAT FALLS    MOCLDY    65  50  58 SW14      29.76R
REGINA         PTCLDY    57  45  62 SE15G21   29.61F
ESTEVAN        MOCLDY    61  43  51 S17G24    29.67F
$$




USA.gov is the U.S. government's official web portal to all federal, state and local government web resources and services.